TimeEST,TemperatureF,Dew PointF,Humidity,Sea Level PressureIn,VisibilityMPH,Wind Direction,Wind SpeedMPH,Gust SpeedMPH,PrecipitationIn,Events,Conditions,WindDirDegrees,DateUTC
12:53 AM,45.0,41.0,86,29.97,10.0,ENE,3.5,-,N/A,,Overcast,70,2013-02-23 05:53:00
1:53 AM,44.1,39.0,82,29.99,10.0,Calm,Calm,-,N/A,,Overcast,0,2013-02-23 06:53:00
2:53 AM,44.1,39.0,82,29.97,10.0,Calm,Calm,-,N/A,,Overcast,0,2013-02-23 07:53:00
3:53 AM,43.0,39.0,86,29.98,8.0,Calm,Calm,-,0.00,Rain,Light Rain,0,2013-02-23 08:53:00
4:30 AM,42.1,39.9,92,30.00,6.0,ESE,3.5,-,0.03,Rain,Light Rain,110,2013-02-23 09:30:00
4:41 AM,42.1,39.9,92,29.99,7.0,NNE,3.5,-,0.04,Rain,Light Rain,20,2013-02-23 09:41:00
4:53 AM,42.1,39.0,89,29.94,7.0,NE,4.6,-,0.04,Rain,Light Rain,40,2013-02-23 09:53:00
5:18 AM,41.0,39.0,93,29.97,8.0,East,4.6,-,0.00,Rain,Light Rain,80,2013-02-23 10:18:00
5:53 AM,41.0,39.0,93,29.94,7.0,Calm,Calm,-,0.01,,Overcast,0,2013-02-23 10:53:00
6:33 AM,41.0,37.9,89,29.96,8.0,ENE,3.5,-,N/A,,Overcast,70,2013-02-23 11:33:00
6:53 AM,39.9,37.9,93,29.93,7.0,Calm,Calm,-,N/A,,Overcast,0,2013-02-23 11:53:00
7:12 AM,39.9,39.0,97,29.96,4.0,Calm,Calm,-,N/A,,Mostly Cloudy,0,2013-02-23 12:12:00
7:53 AM,41.0,39.0,93,29.93,5.0,Calm,Calm,-,N/A,,Overcast,0,2013-02-23 12:53:00
8:53 AM,42.1,39.0,89,29.94,6.0,Calm,Calm,-,N/A,,Overcast,0,2013-02-23 13:53:00
9:53 AM,43.0,39.9,89,29.93,8.0,Calm,Calm,-,N/A,,Overcast,0,2013-02-23 14:53:00
10:53 AM,46.0,41.0,83,29.91,9.0,Calm,Calm,-,N/A,,Overcast,0,2013-02-23 15:53:00
11:53 AM,48.9,43.0,80,29.91,10.0,Calm,Calm,-,N/A,,Overcast,0,2013-02-23 16:53:00
12:53 PM,52.0,46.0,80,29.88,10.0,Calm,Calm,-,N/A,,Mostly Cloudy,0,2013-02-23 17:53:00
1:53 PM,54.0,45.0,72,29.85,10.0,West,4.6,-,N/A,,Mostly Cloudy,280,2013-02-23 18:53:00
2:10 PM,53.1,45.0,74,29.88,10.0,Variable,3.5,-,N/A,,Mostly Cloudy,0,2013-02-23 19:10:00
2:53 PM,55.0,45.0,69,29.84,10.0,Variable,3.5,-,N/A,,Mostly Cloudy,0,2013-02-23 19:53:00
3:53 PM,55.9,44.1,64,29.83,10.0,West,3.5,-,N/A,,Mostly Cloudy,280,2013-02-23 20:53:00
4:53 PM,55.9,43.0,62,29.83,10.0,SW,5.8,-,N/A,,Mostly Cloudy,220,2013-02-23 21:53:00
5:53 PM,53.1,44.1,71,29.82,10.0,SSW,8.1,-,N/A,,Mostly Cloudy,210,2013-02-23 22:53:00
6:53 PM,50.0,43.0,77,29.81,10.0,WSW,5.8,-,N/A,,Mostly Cloudy,250,2013-02-23 23:53:00
7:53 PM,48.0,43.0,83,29.83,10.0,West,5.8,-,N/A,,Mostly Cloudy,260,2013-02-24 00:53:00
8:53 PM,46.0,43.0,89,29.82,10.0,SW,4.6,-,N/A,,Mostly Cloudy,230,2013-02-24 01:53:00
9:53 PM,46.0,43.0,89,29.84,10.0,SW,3.5,-,N/A,,Mostly Cloudy,220,2013-02-24 02:53:00
10:53 PM,46.0,43.0,89,29.84,10.0,Calm,Calm,-,N/A,,Overcast,0,2013-02-24 03:53:00
11:00 PM,46.0,44.1,93,29.87,10.0,Calm,Calm,-,N/A,,Overcast,0,2013-02-24 04:00:00
11:53 PM,46.9,44.1,90,29.85,9.0,WSW,8.1,-,N/A,,Overcast,250,2013-02-24 04:53:00